Hourly Data Report for August 01, 2015

All times are specified in Local Standard Time (LST). Add 1 hour to adjust for Daylight Saving Time where and when it is observed.

TORONTO INTL A
ONTARIO

43°40'36.000" N
79°37'50.000" W
173.40 m
6158731
71624
YYZ

Download Data

Hourly Data (August 2015)
Hourly Data Report for August 1, 2015
Temp Definition
°C
Dew Point Temp Definition
°C
Rel Hum Definition
%
Wind Dir Definition
10's deg

Wind Spd Definition
km/h
Visibility Definition
km
Stn Press Definition
kPa
Hmdx Definition


Wind Chill Definition


Weather Definition


TIME
00:00 Legend Double Dagger 18.8 15.5 81 28 11 24.1 98.84     LegendNANA
01:00 Legend Double Dagger 17.8 14.7 82 27 12 24.1 98.84     Mainly Clear
02:00 Legend Double Dagger 18.3 14.3 77 29 12 24.1 98.84     LegendNANA
03:00 Legend Double Dagger 18.0 14.0 77 29 18 24.1 98.87     LegendNANA
04:00 Legend Double Dagger 17.8 13.6 76 29 19 24.1 98.90     Clear
05:00 Legend Double Dagger 16.5 12.9 79 28 18 24.1 98.94     LegendNANA
06:00 Legend Double Dagger 16.7 12.9 78 27 16 24.1 98.97     LegendNANA
07:00 Legend Double Dagger 18.5 13.0 70 29 20 24.1 99.02     Clear
08:00 Legend Double Dagger 20.0 13.6 66 30 15 24.1 99.04     LegendNANA
09:00 Legend Double Dagger 22.0 12.4 54 30 23 24.1 99.03     LegendNANA
10:00 Legend Double Dagger 23.7 12.2 48 30 21 24.1 99.02 26   Mainly Clear
11:00 Legend Double Dagger 24.4 11.6 44 30 24 24.1 99.04 26   LegendNANA
12:00 Legend Double Dagger 24.3 10.4 41 26 23 24.1 99.03 26   LegendNANA
13:00 Legend Double Dagger 25.8 11.8 41 26 29 24.1 98.97 28   Mostly Cloudy
14:00 Legend Double Dagger 25.5 11.9 42 26 21 24.1 98.92 28   LegendNANA
15:00 Legend Double Dagger 26.7 11.4 38 27 34 24.1 98.89 29   LegendNANA
16:00 Legend Double Dagger 27.2 10.7 35 28 36 24.1 98.83 29   Mainly Clear
17:00 Legend Double Dagger 26.6 10.5 36 29 28 24.1 98.86 28   LegendNANA
18:00 Legend Double Dagger 25.2 10.5 39 30 25 24.1 98.87 27   LegendNANA
19:00 Legend Double Dagger 24.8 10.9 41 29 23 24.1 98.89 27   Clear
20:00 Legend Double Dagger 23.3 10.9 45 28 19 24.1 98.96 25   LegendNANA
21:00 Legend Double Dagger 21.6 11.5 52 27 14 24.1 99.01     LegendNANA
22:00 Legend Double Dagger 20.6 12.2 58 26 13 24.1 99.02     Clear
23:00 Legend Double Dagger 19.2 12.3 64 25 8 24.1 99.00     LegendNANA

Notes on Data Quality.

Legend

  • E = Estimated
  • M = Missing
  • NA = Not Available
  • ‡ = Partner data that is not subject to review by the National Climate Archives
Date modified: